| time (UTC) | temp F | wind direction | speed MPH | gust MPH | rain 1hr in | rain 24hr in | rain mn in | humidity % | barometer mb |
| 20260903092905 | 69 | 251 | 5.0 | 9.0 | 0.00 | 0.06 | 0.00 | 87 | 1018.4 |
| 20260903091904 | 69 | 262 | 6.0 | 15.0 | 0.00 | 0.06 | 0.00 | 89 | 1018.4 |
| 20260903090905 | 68 | 248 | 6.0 | 10.0 | 0.00 | 0.06 | 0.00 | 90 | 1018.4 |
| 20260903090406 | 68 | 240 | 6.0 | 13.0 | 0.00 | 0.06 | 0.00 | 90 | 1018.4 |
| 20260903085904 | 68 | 249 | 6.0 | 13.0 | 0.00 | 0.06 | 0.00 | 91 | 1018.5 |
| 20260903085405 | 68 | 228 | 6.0 | 10.0 | 0.00 | 0.06 | 0.00 | 91 | 1018.2 |
| 20260903084904 | 68 | 248 | 5.0 | 10.0 | 0.00 | 0.06 | 0.00 | 91 | 1018.2 |
| 20260903084405 | 67 | 241 | 6.0 | 12.0 | 0.00 | 0.06 | 0.00 | 91 | 1018.2 |
| 20260903083904 | 67 | 212 | 6.0 | 13.0 | 0.00 | 0.06 | 0.00 | 91 | 1018.2 |
| 20260903083405 | 68 | 233 | 5.0 | 12.0 | 0.00 | 0.06 | 0.00 | 91 | 1018.2 |
| 20260903082904 | 68 | 234 | 6.0 | 13.0 | 0.00 | 0.06 | 0.00 | 91 | 1018.2 |
| 20260903082404 | 68 | 215 | 6.0 | 13.0 | 0.00 | 0.06 | 0.00 | 91 | 1018.2 |
| 20260903081905 | 68 | 233 | 4.0 | 16.0 | 0.00 | 0.06 | 0.00 | 91 | 1018.1 |
| 20260903081404 | 67 | 230 | 6.0 | 17.0 | 0.00 | 0.06 | 0.00 | 91 | 1018.1 |
| 20260903080905 | 68 | 235 | 7.0 | 18.0 | 0.00 | 0.06 | 0.00 | 91 | 1018.1 |
| 20260903080404 | 68 | 232 | 5.0 | 12.0 | 0.00 | 0.06 | 0.00 | 92 | 1018.1 |
| 20260903075905 | 68 | 234 | 5.0 | 10.0 | 0.00 | 0.06 | 0.00 | 92 | 1018.1 |
| 20260903075405 | 67 | 237 | 5.0 | 12.0 | 0.00 | 0.06 | 0.00 | 92 | 1018.1 |
| 20260903074904 | 67 | 236 | 6.0 | 15.0 | 0.00 | 0.06 | 0.00 | 92 | 1018.0 |
| 20260903074404 | 67 | 238 | 5.0 | 12.0 | 0.00 | 0.06 | 0.00 | 93 | 1017.9 |
| 20260903073905 | 67 | 217 | 6.0 | 14.0 | 0.00 | 0.06 | 0.00 | 93 | 1017.9 |
| 20260903073405 | 67 | 224 | 8.0 | 16.0 | 0.00 | 0.06 | 0.00 | 93 | 1017.9 |
| 20260903072405 | 67 | 233 | 6.0 | 12.0 | 0.00 | 0.06 | 0.00 | 93 | 1017.9 |
| 20260903071904 | 66 | 215 | 6.0 | 14.0 | 0.00 | 0.06 | 0.00 | 93 | 1017.9 |
| 20260903071405 | 66 | 213 | 5.0 | 15.0 | 0.00 | 0.06 | 0.00 | 93 | 1017.9 |
| 20260903070904 | 66 | 216 | 5.0 | 12.0 | 0.00 | 0.06 | 0.00 | 93 | 1017.9 |
| 20260903070405 | 66 | 240 | 5.0 | 12.0 | 0.00 | 0.06 | 0.00 | 92 | 1017.9 |
| 20260903065905 | 66 | 231 | 6.0 | 12.0 | 0.00 | 0.06 | 0.00 | 92 | 1017.9 |
| 20260903064905 | 66 | 231 | 5.0 | 9.0 | 0.00 | 0.06 | 0.00 | 92 | 1018.0 |
| 20260903064405 | 66 | 237 | 2.0 | 7.0 | 0.00 | 0.06 | 0.00 | 93 | 1018.0 |
| 20260903063905 | 66 | 241 | 3.0 | 10.0 | 0.00 | 0.06 | 0.00 | 93 | 1017.9 |
| 20260903062904 | 66 | 223 | 5.0 | 14.0 | 0.00 | 0.06 | 0.00 | 93 | 1017.9 |
| 20260903062405 | 66 | 236 | 5.0 | 9.0 | 0.00 | 0.06 | 0.00 | 93 | 1017.9 |
| 20260903061905 | 66 | 251 | 6.0 | 12.0 | 0.00 | 0.06 | 0.00 | 93 | 1017.8 |
| 20260903061405 | 66 | 245 | 5.0 | 12.0 | 0.00 | 0.06 | 0.00 | 93 | 1017.8 |
| 20260903060905 | 66 | 239 | 6.0 | 12.0 | 0.00 | 0.06 | 0.00 | 93 | 1017.8 |
| 20260903060405 | 66 | 242 | 4.0 | 12.0 | 0.00 | 0.06 | 0.00 | 93 | 1017.2 |
| 20260903055904 | 66 | 232 | 5.0 | 10.0 | 0.00 | 0.06 | 0.00 | 93 | 1017.2 |
| 20260903055405 | 66 | 249 | 5.0 | 12.0 | 0.00 | 0.06 | 0.00 | 93 | 1017.2 |
| 20260903054904 | 66 | 243 | 6.0 | 13.0 | 0.00 | 0.06 | 0.00 | 93 | 1017.2 |
| 20260903054404 | 66 | 250 | 5.0 | 12.0 | 0.00 | 0.06 | 0.00 | 93 | 1017.2 |
| 20260903053905 | 66 | 248 | 5.0 | 12.0 | 0.00 | 0.06 | 0.00 | 93 | 1017.2 |
| 20260903053404 | 66 | 250 | 6.0 | 9.0 | 0.00 | 0.06 | 0.00 | 93 | 1017.2 |
| 20260903052405 | 66 | 237 | 6.0 | 10.0 | 0.00 | 0.06 | 0.00 | 93 | 1017.2 |
| 20260903051906 | 66 | 245 | 6.0 | 12.0 | 0.00 | 0.06 | 0.00 | 93 | 1017.2 |
| 20260903051405 | 66 | 242 | 5.0 | 13.0 | 0.00 | 0.06 | 0.00 | 93 | 1017.2 |
| 20260903050904 | 66 | 246 | 3.0 | 13.0 | 0.00 | 0.06 | 0.00 | 92 | 1017.2 |
| 20260903050404 | 66 | 246 | 6.0 | 15.0 | 0.00 | 0.06 | 0.00 | 92 | 1017.2 |
| 20260903045905 | 66 | 236 | 5.0 | 14.0 | 0.00 | 0.06 | 0.00 | 92 | 1017.1 |
| 20260903044905 | 66 | 243 | 5.0 | 13.0 | 0.00 | 0.06 | 0.00 | 92 | 1017.0 |
| 20260903043905 | 66 | 233 | 6.0 | 12.0 | 0.00 | 0.06 | 0.00 | 92 | 1017.1 |
| 20260903043404 | 66 | 240 | 6.0 | 14.0 | 0.00 | 0.06 | 0.00 | 92 | 1017.1 |
| 20260903042905 | 66 | 233 | 6.0 | 12.0 | 0.00 | 0.06 | 0.00 | 92 | 1017.1 |
| 20260903042404 | 66 | 224 | 6.0 | 13.0 | 0.00 | 0.06 | 0.00 | 92 | 1017.1 |
| 20260903041404 | 66 | 238 | 6.0 | 12.0 | 0.00 | 0.06 | 0.00 | 92 | 1017.1 |
| 20260903040904 | 66 | 217 | 5.0 | 16.0 | 0.00 | 0.06 | 0.00 | 92 | 1017.1 |
| 20260903035905 | 66 | 231 | 7.0 | 15.0 | 0.00 | 0.06 | 0.00 | 93 | 1017.1 |
| 20260903035405 | 66 | 239 | 6.0 | 10.0 | 0.00 | 0.06 | 0.00 | 92 | 1017.1 |
| 20260903034904 | 66 | 237 | 3.0 | 9.0 | 0.00 | 0.06 | 0.00 | 92 | 1017.1 |
| 20260903034405 | 66 | 235 | 7.0 | 14.0 | 0.00 | 0.06 | 0.00 | 92 | 1017.1 |
| 20260903033904 | 66 | 235 | 9.0 | 16.0 | 0.00 | 0.06 | 0.00 | 92 | 1017.1 |
| 20260903033405 | 66 | 229 | 7.0 | 15.0 | 0.00 | 0.06 | 0.00 | 92 | 1017.1 |
| 20260903032904 | 66 | 222 | 7.0 | 18.0 | 0.00 | 0.06 | 0.00 | 92 | 1017.1 |
| 20260903032405 | 65 | 222 | 5.0 | 14.0 | 0.00 | 0.06 | 0.00 | 92 | 1017.1 |
| 20260903031405 | 65 | 234 | 7.0 | 15.0 | 0.00 | 0.06 | 0.00 | 92 | 1017.3 |
| 20260903030904 | 65 | 222 | 6.0 | 12.0 | 0.00 | 0.06 | 0.00 | 92 | 1017.3 |
| 20260903030404 | 65 | 223 | 5.0 | 12.0 | 0.00 | 0.06 | 0.00 | 92 | 1017.3 |
| 20260903025905 | 65 | 223 | 6.0 | 13.0 | 0.00 | 0.06 | 0.00 | 92 | 1017.3 |
| 20260903025405 | 65 | 227 | 6.0 | 14.0 | 0.00 | 0.06 | 0.00 | 92 | 1017.3 |
| 20260903024904 | 65 | 224 | 5.0 | 12.0 | 0.00 | 0.06 | 0.00 | 92 | 1017.1 |
| 20260903023405 | 65 | 229 | 6.0 | 15.0 | 0.00 | 0.06 | 0.00 | 92 | 1017.2 |
| 20260903022904 | 65 | 244 | 5.0 | 12.0 | 0.00 | 0.06 | 0.00 | 92 | 1017.2 |
| 20260903022405 | 65 | 245 | 5.0 | 16.0 | 0.00 | 0.06 | 0.00 | 92 | 1017.2 |
| 20260903020904 | 65 | 244 | 5.0 | 18.0 | 0.00 | 0.06 | 0.00 | 92 | 1017.1 |
| 20260903020404 | 65 | 221 | 6.0 | 12.0 | 0.00 | 0.06 | 0.00 | 92 | 1017.1 |
| 20260903015904 | 65 | 237 | 5.0 | 17.0 | 0.00 | 0.06 | 0.00 | 92 | 1016.8 |
| 20260903014904 | 65 | 231 | 5.0 | 15.0 | 0.00 | 0.06 | 0.00 | 92 | 1016.9 |
| 20260903014404 | 65 | 231 | 6.0 | 12.0 | 0.00 | 0.06 | 0.00 | 92 | 1017.1 |
| 20260903013904 | 65 | 233 | 6.0 | 16.0 | 0.00 | 0.06 | 0.00 | 92 | 1017.2 |
| 20260903013405 | 65 | 245 | 6.0 | 12.0 | 0.00 | 0.06 | 0.00 | 92 | 1017.3 |
| 20260903012905 | 65 | 243 | 5.0 | 10.0 | 0.00 | 0.06 | 0.00 | 92 | 1017.5 |
| 20260903011904 | 65 | 211 | 8.0 | 13.0 | 0.00 | 0.06 | 0.00 | 92 | 1017.5 |
| 20260903011405 | 65 | 237 | 5.0 | 15.0 | 0.00 | 0.06 | 0.00 | 92 | 1017.5 |
| 20260903010904 | 65 | 211 | 6.0 | 13.0 | 0.00 | 0.06 | 0.00 | 92 | 1017.5 |
| 20260903010404 | 65 | 240 | 6.0 | 14.0 | 0.00 | 0.06 | 0.00 | 92 | 1017.5 |
| 20260903005904 | 65 | 225 | 8.0 | 15.0 | 0.00 | 0.06 | 0.00 | 92 | 1017.4 |
| 20260903005404 | 65 | 230 | 8.0 | 15.0 | 0.00 | 0.06 | 0.00 | 92 | 1017.5 |
| 20260903004904 | 65 | 221 | 9.0 | 16.0 | 0.00 | 0.06 | 0.00 | 92 | 1017.5 |
| 20260903004404 | 65 | 230 | 7.0 | 12.0 | 0.00 | 0.06 | 0.00 | 92 | 1017.7 |
| 20260903003905 | 65 | 244 | 8.0 | 18.0 | 0.00 | 0.06 | 0.00 | 92 | 1017.8 |
| 20260903003404 | 65 | 237 | 7.0 | 16.0 | 0.00 | 0.06 | 0.00 | 92 | 1017.8 |
| 20260903002904 | 65 | 224 | 5.0 | 13.0 | 0.00 | 0.06 | 0.00 | 92 | 1017.8 |
| 20260903002405 | 65 | 219 | 5.0 | 20.0 | 0.00 | 0.06 | 0.00 | 92 | 1017.6 |
| 20260903001904 | 65 | 232 | 6.0 | 13.0 | 0.00 | 0.06 | 0.00 | 91 | 1017.4 |
| 20260903001404 | 65 | 225 | 8.0 | 16.0 | 0.00 | 0.06 | 0.00 | 91 | 1017.4 |
| 20260903000905 | 65 | 231 | 5.0 | 17.0 | 0.00 | 0.06 | 0.00 | 91 | 1017.6 |
| 20260903000405 | 65 | 214 | 8.0 | 14.0 | 0.00 | 0.06 | 0.00 | 91 | 1017.6 |
| 20260902235904 | 65 | 224 | 7.0 | 14.0 | 0.00 | 0.06 | 0.00 | 91 | 1017.6 |
| 20260902235404 | 65 | 238 | 5.0 | 13.0 | 0.00 | 0.06 | 0.00 | 91 | 1017.6 |
| 20260902234905 | 65 | 214 | 9.0 | 14.0 | 0.00 | 0.06 | 0.00 | 91 | 1017.4 |
| 20260902234405 | 65 | 224 | 8.0 | 15.0 | 0.00 | 0.06 | 0.00 | 91 | 1017.4 |
| 20260902233905 | 65 | 216 | 9.0 | 16.0 | 0.00 | 0.06 | 0.00 | 91 | 1017.5 |
| 20260902233405 | 65 | 229 | 6.0 | 13.0 | 0.00 | 0.06 | 0.00 | 91 | 1017.8 |
| 20260902232904 | 65 | 240 | 7.0 | 12.0 | 0.00 | 0.06 | 0.00 | 91 | 1017.8 |
| 20260902231405 | 65 | 249 | 6.0 | 13.0 | 0.00 | 0.06 | 0.00 | 91 | 1018.0 |
| 20260902230904 | 65 | 240 | 7.0 | 15.0 | 0.00 | 0.06 | 0.00 | 91 | 1018.0 |
| 20260902225905 | 65 | 225 | 6.0 | 12.0 | 0.00 | 0.06 | 0.06 | 91 | 1018.0 |
| 20260902225405 | 65 | 227 | 5.0 | 12.0 | 0.00 | 0.06 | 0.06 | 91 | 1018.0 |
| 20260902224404 | 65 | 239 | 8.0 | 17.0 | 0.00 | 0.06 | 0.06 | 91 | 1018.0 |
| 20260902223904 | 65 | 237 | 5.0 | 14.0 | 0.00 | 0.06 | 0.06 | 91 | 1017.6 |
| 20260902223405 | 65 | 237 | 6.0 | 13.0 | 0.00 | 0.06 | 0.06 | 91 | 1017.6 |
| 20260902222904 | 65 | 232 | 5.0 | 12.0 | 0.00 | 0.06 | 0.06 | 91 | 1017.6 |
| 20260902222405 | 65 | 243 | 5.0 | 12.0 | 0.00 | 0.06 | 0.06 | 91 | 1017.6 |
| 20260902221404 | 65 | 245 | 5.0 | 12.0 | 0.00 | 0.06 | 0.06 | 92 | 1017.6 |
| 20260902220905 | 65 | 231 | 5.0 | 17.0 | 0.00 | 0.06 | 0.06 | 92 | 1017.6 |
| 20260902220404 | 65 | 242 | 4.0 | 12.0 | 0.00 | 0.06 | 0.06 | 92 | 1017.6 |
| 20260902215904 | 65 | 226 | 5.0 | 12.0 | 0.00 | 0.06 | 0.06 | 92 | 1017.6 |
| 20260902215405 | 65 | 219 | 7.0 | 14.0 | 0.00 | 0.06 | 0.06 | 92 | 1017.6 |
| 20260902214905 | 65 | 219 | 5.0 | 10.0 | 0.00 | 0.06 | 0.06 | 92 | 1017.6 |
| 20260902214405 | 65 | 220 | 5.0 | 10.0 | 0.00 | 0.06 | 0.06 | 92 | 1017.7 |
| 20260902213904 | 65 | 203 | 9.0 | 13.0 | 0.00 | 0.06 | 0.06 | 92 | 1017.7 |
| 20260902213405 | 65 | 236 | 4.0 | 12.0 | 0.00 | 0.06 | 0.06 | 92 | 1017.7 |
| 20260902212905 | 65 | 224 | 3.0 | 9.0 | 0.00 | 0.06 | 0.06 | 92 | 1017.8 |
| 20260902212404 | 65 | 233 | 6.0 | 12.0 | 0.00 | 0.06 | 0.06 | 92 | 1017.8 |
| 20260902211904 | 65 | 232 | 6.0 | 10.0 | 0.00 | 0.06 | 0.06 | 92 | 1017.8 |
| 20260902210904 | 65 | 216 | 5.0 | 10.0 | 0.00 | 0.06 | 0.06 | 92 | 1017.9 |
| 20260902210405 | 65 | 231 | 5.0 | 10.0 | 0.00 | 0.06 | 0.06 | 92 | 1018.0 |
| 20260902205905 | 65 | 250 | 4.0 | 15.0 | 0.00 | 0.06 | 0.06 | 92 | 1017.7 |
| 20260902205404 | 65 | 241 | 6.0 | 13.0 | 0.00 | 0.06 | 0.06 | 92 | 1017.7 |
| 20260902204905 | 65 | 232 | 5.0 | 12.0 | 0.00 | 0.06 | 0.06 | 92 | 1017.7 |
| 20260902204404 | 65 | 240 | 6.0 | 12.0 | 0.00 | 0.06 | 0.06 | 92 | 1017.7 |
| 20260902203904 | 65 | 234 | 5.0 | 12.0 | 0.00 | 0.06 | 0.06 | 92 | 1017.7 |
| 20260902202904 | 65 | 232 | 5.0 | 16.0 | 0.00 | 0.06 | 0.06 | 92 | 1017.7 |
| 20260902202405 | 65 | 234 | 6.0 | 12.0 | 0.00 | 0.06 | 0.06 | 92 | 1017.7 |
| 20260902201904 | 65 | 229 | 7.0 | 12.0 | 0.00 | 0.06 | 0.06 | 92 | 1017.7 |
| 20260902201404 | 65 | 233 | 6.0 | 16.0 | 0.00 | 0.06 | 0.06 | 93 | 1017.6 |
| 20260902200405 | 65 | 239 | 7.0 | 14.0 | 0.00 | 0.06 | 0.06 | 93 | 1017.6 |
| 20260902195904 | 65 | 219 | 6.0 | 12.0 | 0.00 | 0.06 | 0.06 | 93 | 1017.6 |
| 20260902195404 | 65 | 228 | 5.0 | 12.0 | 0.01 | 0.06 | 0.06 | 93 | 1017.6 |
| 20260902194905 | 65 | 215 | 6.0 | 12.0 | 0.01 | 0.06 | 0.06 | 93 | 1017.5 |
| 20260902193905 | 65 | 228 | 5.0 | 12.0 | 0.01 | 0.06 | 0.06 | 93 | 1017.5 |
| 20260902193405 | 65 | 230 | 6.0 | 12.0 | 0.01 | 0.06 | 0.06 | 93 | 1017.5 |
| 20260902192905 | 65 | 225 | 6.0 | 12.0 | 0.01 | 0.06 | 0.06 | 93 | 1017.5 |
| 20260902192404 | 65 | 227 | 5.0 | 12.0 | 0.01 | 0.06 | 0.06 | 93 | 1017.5 |
| 20260902191904 | 65 | 239 | 7.0 | 16.0 | 0.01 | 0.06 | 0.06 | 93 | 1017.5 |
| 20260902191405 | 65 | 235 | 9.0 | 17.0 | 0.01 | 0.06 | 0.06 | 93 | 1017.3 |
| 20260902190904 | 65 | 225 | 8.0 | 14.0 | 0.01 | 0.06 | 0.06 | 93 | 1017.3 |
| 20260902190404 | 65 | 218 | 9.0 | 23.0 | 0.01 | 0.06 | 0.06 | 93 | 1017.3 |
| 20260902185905 | 65 | 219 | 6.0 | 15.0 | 0.01 | 0.06 | 0.06 | 93 | 1017.3 |
| 20260902185405 | 65 | 212 | 7.0 | 15.0 | 0.00 | 0.05 | 0.05 | 93 | 1017.4 |
| 20260902184905 | 65 | 238 | 7.0 | 16.0 | 0.00 | 0.05 | 0.05 | 93 | 1017.4 |
| 20260902184405 | 65 | 219 | 7.0 | 13.0 | 0.00 | 0.05 | 0.05 | 93 | 1017.4 |
| 20260902183905 | 65 | 223 | 6.0 | 12.0 | 0.00 | 0.05 | 0.05 | 93 | 1017.4 |
| 20260902183405 | 65 | 239 | 6.0 | 14.0 | 0.00 | 0.05 | 0.05 | 93 | 1017.4 |
| 20260902182405 | 65 | 247 | 6.0 | 13.0 | 0.00 | 0.05 | 0.05 | 93 | 1017.4 |
| 20260902181904 | 65 | 228 | 9.0 | 16.0 | 0.00 | 0.05 | 0.05 | 93 | 1017.3 |
| 20260902181404 | 65 | 221 | 6.0 | 14.0 | 0.00 | 0.05 | 0.05 | 93 | 1017.3 |
| 20260902180904 | 65 | 223 | 8.0 | 18.0 | 0.00 | 0.05 | 0.05 | 93 | 1017.3 |
| 20260902180404 | 65 | 223 | 6.0 | 16.0 | 0.00 | 0.05 | 0.05 | 93 | 1017.3 |
| 20260902175904 | 65 | 233 | 7.0 | 18.0 | 0.00 | 0.05 | 0.05 | 93 | 1017.3 |
| 20260902175405 | 65 | 221 | 10.0 | 20.0 | 0.00 | 0.05 | 0.05 | 93 | 1017.3 |
| 20260902174904 | 65 | 216 | 9.0 | 20.0 | 0.00 | 0.05 | 0.05 | 93 | 1017.4 |
| 20260902174405 | 65 | 237 | 7.0 | 16.0 | 0.00 | 0.05 | 0.05 | 93 | 1017.4 |
| 20260902173904 | 65 | 239 | 10.0 | 22.0 | 0.00 | 0.05 | 0.05 | 93 | 1017.4 |
| 20260902173404 | 65 | 220 | 9.0 | 16.0 | 0.00 | 0.05 | 0.05 | 93 | 1017.5 |
| 20260902172904 | 65 | 210 | 7.0 | 17.0 | 0.00 | 0.05 | 0.05 | 93 | 1017.3 |
| 20260902172406 | 65 | 210 | 8.0 | 21.0 | 0.00 | 0.05 | 0.05 | 93 | 1017.3 |
| 20260902171404 | 65 | 218 | 12.0 | 20.0 | 0.00 | 0.05 | 0.05 | 92 | 1017.3 |
| 20260902170904 | 65 | 211 | 8.0 | 17.0 | 0.00 | 0.05 | 0.05 | 92 | 1017.3 |
| 20260902170404 | 65 | 219 | 12.0 | 22.0 | 0.00 | 0.05 | 0.05 | 92 | 1017.4 |
| 20260902165904 | 65 | 216 | 9.0 | 20.0 | 0.00 | 0.05 | 0.05 | 92 | 1017.4 |
| 20260902165404 | 65 | 220 | 7.0 | 16.0 | 0.00 | 0.05 | 0.05 | 92 | 1017.4 |
| 20260902164404 | 65 | 214 | 9.0 | 26.0 | 0.01 | 0.05 | 0.05 | 92 | 1017.6 |
| 20260902163904 | 65 | 210 | 13.0 | 25.0 | 0.02 | 0.05 | 0.05 | 92 | 1017.6 |
| 20260902163405 | 65 | 214 | 10.0 | 24.0 | 0.02 | 0.05 | 0.05 | 92 | 1017.6 |
| 20260902162904 | 65 | 215 | 10.0 | 18.0 | 0.02 | 0.05 | 0.05 | 92 | 1017.6 |
| 20260902162404 | 65 | 215 | 12.0 | 22.0 | 0.02 | 0.05 | 0.05 | 92 | 1017.6 |
| 20260902161904 | 65 | 207 | 12.0 | 21.0 | 0.02 | 0.05 | 0.05 | 92 | 1017.7 |
| 20260902161404 | 64 | 197 | 9.0 | 21.0 | 0.02 | 0.05 | 0.05 | 92 | 1017.7 |
| 20260902160905 | 64 | 197 | 12.0 | 20.0 | 0.02 | 0.05 | 0.05 | 92 | 1017.8 |
| 20260902160404 | 64 | 212 | 10.0 | 18.0 | 0.02 | 0.05 | 0.05 | 92 | 1017.8 |
| 20260902154904 | 64 | 206 | 9.0 | 22.0 | 0.02 | 0.05 | 0.05 | 91 | 1018.3 |
| 20260902154404 | 64 | 214 | 10.0 | 21.0 | 0.02 | 0.04 | 0.04 | 91 | 1018.3 |
| 20260902153904 | 64 | 216 | 12.0 | 22.0 | 0.02 | 0.03 | 0.03 | 91 | 1018.3 |
| 20260902153405 | 64 | 205 | 9.0 | 16.0 | 0.03 | 0.03 | 0.03 | 91 | 1018.3 |
| 20260902152905 | 64 | 235 | 7.0 | 16.0 | 0.03 | 0.03 | 0.03 | 91 | 1018.3 |
| 20260902152404 | 64 | 212 | 12.0 | 20.0 | 0.03 | 0.03 | 0.03 | 91 | 1018.3 |
| 20260902151404 | 64 | 215 | 9.0 | 17.0 | 0.03 | 0.03 | 0.03 | 90 | 1018.6 |
| 20260902145904 | 64 | 208 | 7.0 | 16.0 | 0.02 | 0.02 | 0.02 | 89 | 1018.6 |
| 20260902145405 | 64 | 206 | 10.0 | 20.0 | 0.02 | 0.02 | 0.02 | 89 | 1018.5 |
| 20260902144904 | 64 | 201 | 12.0 | 20.0 | 0.02 | 0.02 | 0.02 | 88 | 1018.5 |
| 20260902144405 | 65 | 207 | 12.0 | 18.0 | 0.02 | 0.02 | 0.02 | 88 | 1018.5 |
| 20260902143905 | 65 | 204 | 10.0 | 24.0 | 0.01 | 0.01 | 0.01 | 87 | 1018.8 |
| 20260902143404 | 65 | 195 | 11.0 | 20.0 | 0.00 | 0.00 | 0.00 | 86 | 1018.8 |
| 20260902142904 | 66 | 209 | 9.0 | 15.0 | 0.00 | 0.00 | 0.00 | 85 | 1018.8 |
| 20260902142404 | 66 | 208 | 10.0 | 20.0 | 0.00 | 0.00 | 0.00 | 83 | 1018.8 |
| 20260902141905 | 66 | 195 | 10.0 | 24.0 | 0.00 | 0.00 | 0.00 | 81 | 1018.8 |
| 20260902141404 | 67 | 215 | 13.0 | 23.0 | 0.00 | 0.00 | 0.00 | 78 | 1018.8 |
| 20260902140904 | 68 | 213 | 7.0 | 18.0 | 0.00 | 0.00 | 0.00 | 77 | 1018.8 |
| 20260902140404 | 67 | 211 | 10.0 | 21.0 | 0.00 | 0.00 | 0.00 | 77 | 1018.8 |
| 20260902135905 | 67 | 202 | 10.0 | 20.0 | 0.00 | 0.00 | 0.00 | 77 | 1019.1 |
| 20260902135404 | 68 | 198 | 14.0 | 23.0 | 0.00 | 0.00 | 0.00 | 77 | 1019.1 |
| 20260902134904 | 67 | 211 | 11.0 | 20.0 | 0.00 | 0.00 | 0.00 | 78 | 1019.1 |
| 20260902134405 | 67 | 230 | 9.0 | 16.0 | 0.00 | 0.00 | 0.00 | 78 | 1019.1 |
| 20260902133904 | 68 | 215 | 8.0 | 17.0 | 0.00 | 0.00 | 0.00 | 78 | 1019.1 |
| 20260902133405 | 68 | 236 | 9.0 | 23.0 | 0.00 | 0.00 | 0.00 | 75 | 1019.1 |
| 20260902132904 | 69 | 206 | 9.0 | 20.0 | 0.00 | 0.00 | 0.00 | 73 | 1019.1 |
| 20260902132404 | 69 | 168 | 12.0 | 20.0 | 0.00 | 0.00 | 0.00 | 71 | 1019.1 |
| 20260902131904 | 69 | 214 | 11.0 | 22.0 | 0.00 | 0.00 | 0.00 | 70 | 1019.0 |
| 20260902130404 | 69 | 231 | 11.0 | 20.0 | 0.00 | 0.00 | 0.00 | 69 | 1019.1 |
| 20260902125404 | 69 | 206 | 10.0 | 21.0 | 0.00 | 0.00 | 0.00 | 69 | 1019.2 |
| 20260902124905 | 68 | 217 | 5.0 | 15.0 | 0.00 | 0.00 | 0.00 | 71 | 1019.2 |
| 20260902124404 | 68 | 208 | 10.0 | 20.0 | 0.00 | 0.00 | 0.00 | 71 | 1019.4 |
| 20260902121904 | 69 | 211 | 9.0 | 25.0 | 0.00 | 0.00 | 0.00 | 70 | 1019.4 |
| 20260902121404 | 69 | 204 | 11.0 | 22.0 | 0.00 | 0.00 | 0.00 | 71 | 1019.6 |
| 20260902120904 | 69 | 211 | 9.0 | 20.0 | 0.00 | 0.00 | 0.00 | 70 | 1019.6 |
| 20260902120405 | 69 | 199 | 12.0 | 24.0 | 0.00 | 0.00 | 0.00 | 70 | 1019.6 |
| 20260902114905 | 68 | 195 | 10.0 | 24.0 | 0.00 | 0.00 | 0.00 | 70 | 1019.6 |
| 20260902113905 | 68 | 214 | 10.0 | 21.0 | 0.00 | 0.00 | 0.00 | 71 | 1019.6 |
| 20260902113404 | 68 | 204 | 12.0 | 22.0 | 0.00 | 0.00 | 0.00 | 70 | 1019.6 |
| 20260902112905 | 68 | 208 | 12.0 | 21.0 | 0.00 | 0.00 | 0.00 | 70 | 1019.6 |
| 20260902112405 | 68 | 189 | 14.0 | 22.0 | 0.00 | 0.00 | 0.00 | 69 | 1019.6 |
| 20260902111904 | 68 | 230 | 10.0 | 20.0 | 0.00 | 0.00 | 0.00 | 70 | 1019.7 |
| 20260902111404 | 68 | 215 | 8.0 | 14.0 | 0.00 | 0.00 | 0.00 | 71 | 1019.7 |
| 20260902110904 | 68 | 201 | 12.0 | 22.0 | 0.00 | 0.00 | 0.00 | 72 | 1019.7 |
| 20260902110404 | 68 | 181 | 11.0 | 18.0 | 0.00 | 0.00 | 0.00 | 72 | 1019.8 |
| 20260902105404 | 68 | 212 | 10.0 | 16.0 | 0.00 | 0.00 | 0.00 | 72 | 1019.8 |
| 20260902104905 | 67 | 189 | 10.0 | 18.0 | 0.00 | 0.00 | 0.00 | 74 | 1020.0 |
| 20260902104405 | 67 | 208 | 9.0 | 18.0 | 0.00 | 0.00 | 0.00 | 74 | 1020.0 |
| 20260902103904 | 67 | 216 | 9.0 | 20.0 | 0.00 | 0.00 | 0.00 | 73 | 1020.0 |
| 20260902103405 | 67 | 191 | 9.0 | 18.0 | 0.00 | 0.00 | 0.00 | 73 | 1020.0 |
| 20260902102904 | 68 | 226 | 8.0 | 14.0 | 0.00 | 0.00 | 0.00 | 74 | 1020.0 |
| 20260902102405 | 67 | 204 | 7.0 | 17.0 | 0.00 | 0.00 | 0.00 | 75 | 1020.0 |
| 20260902101404 | 67 | 208 | 10.0 | 20.0 | 0.00 | 0.00 | 0.00 | 76 | 1020.0 |
| 20260902100904 | 67 | 214 | 11.0 | 20.0 | 0.00 | 0.00 | 0.00 | 76 | 1020.0 |
| 20260902100404 | 67 | 211 | 7.0 | 15.0 | 0.00 | 0.00 | 0.00 | 76 | 1020.0 |
| 20260902095404 | 67 | 214 | 9.0 | 18.0 | 0.00 | 0.00 | 0.00 | 76 | 1020.0 |
| 20260902094904 | 67 | 203 | 6.0 | 13.0 | 0.00 | 0.00 | 0.00 | 76 | 1020.0 |
| 20260902094404 | 67 | 216 | 8.0 | 15.0 | 0.00 | 0.00 | 0.00 | 75 | 1020.0 |
| 20260902093904 | 67 | 205 | 9.0 | 15.0 | 0.00 | 0.00 | 0.00 | 75 | 1019.9 |
| 20260902093404 | 67 | 212 | 11.0 | 17.0 | 0.00 | 0.00 | 0.00 | 75 | 1019.9 |